Location: Malvern Link
(52.1333°N, 2.3000°W)
Time: 14:14:44
(UTC+00:00)

SO-50 - Pass Details

Date: 09 July 2022
Orbit: 585 x 698 km, 64.6° (Epoch: 11 August)

Event Time Altitude Azimuth Distance (km) Brightness Sun altitude
Rises 00:12:26 0° 248° (WSW) 2,988 ? -15.5°
Reaches altitude 10° 00:14:50 10° 256° (WSW) 2,096 ? -15.5°
Maximum altitude 00:19:20 40° 326° (NNW) 1,006 ? -15.5°
Drops below altitude 10° 00:23:59 10° 37° (NE) 2,156 ? -15.5°
Sets 00:26:29 0° 45° (NE) 3,083 ? -15.4°
